Theta_e
323 325 328 330 337 332 333 327 327 328 329 333 333 331 332 334 334 339 336 335 334 336 341 341 339 337 334 334 334 333 333 336 337 337 336 336 333 331 331 331 329 329 329 328 329 328 329 329 327
320 325 329 332 335 337 334 328 328 326 326 329 328 329 333 338 335 336 338 335 335 338 342 341 338 336 334 333 333 333 333 334 336 336 336 334 332 332 330 331 327 329 328 327 328 328 329 328 327
322 326 331 333 335 337 335 327 325 326 328 329 331 331 335 338 338 337 336 335 335 342 341 341 337 336 334 333 332 332 332 333 333 332 333 334 333 331 329 330 327 329 328 326 327 328 329 329 329
325 328 328 333 336 334 333 330 326 328 327 328 328 329 329 336 337 335 335 335 336 342 341 341 337 336 334 331 331 331 331 330 330 330 333 333 332 330 329 329 326 327 326 327 327 329 326 329 324
324 329 334 335 334 333 330 330 329 329 328 328 327 328 330 333 334 336 335 335 337 341 341 340 336 334 333 331 329 330 329 329 328 328 331 332 330 328 328 328 326 325 326 326 327 328 328 327 324
328 328 335 337 334 330 328 325 326 328 327 326 328 330 332 328 330 335 336 335 337 339 340 339 336 334 332 330 329 327 329 328 329 329 329 330 327 327 328 327 325 325 327 327 327 327 326 326 324
324 326 328 331 332 331 329 321 326 326 327 327 326 331 331 328 327 333 336 336 337 339 339 337 335 334 331 329 328 328 328 328 328 327 327 326 327 327 328 326 324 326 326 326 326 326 326 325 324
323 323 326 328 330 330 322 320 322 322 322 323 326 331 331 317 323 331 335 336 337 338 337 337 335 334 332 331 327 326 327 328 327 326 327 328 327 327 327 325 325 329 326 327 326 325 325 324 323
323 323 319 320 321 322 320 318 319 316 317 323 321 323 322 313 311 312 326 334 335 336 336 336 336 334 332 331 328 329 328 327 327 327 327 327 328 328 326 324 326 329 326 327 326 324 325 324 322
319 315 315 319 320 318 316 315 314 312 314 316 316 317 316 310 309 310 312 318 332 335 336 335 336 334 332 331 328 329 327 326 327 326 327 326 330 327 327 326 327 329 327 326 323 326 326 324 324
316 318 317 316 313 310 309 308 307 307 307 308 308 308 308 307 307 307 309 311 318 327 334 335 335 335 333 332 330 329 328 327 327 328 326 328 328 327 325 327 329 328 327 327 325 325 324 325 325
309 310 309 309 307 307 307 306 305 306 306 307 307 306 307 306 306 306 306 307 309 316 329 332 334 335 335 334 331 330 328 328 327 328 328 327 327 326 328 327 328 328 327 326 323 324 324 324 324
307 306 306 307 306 305 304 305 305 305 305 306 306 306 306 306 306 306 306 306 307 309 313 331 333 334 336 334 333 330 329 329 327 327 329 327 326 326 328 327 328 328 327 325 323 322 322 322 322
306 307 307 305 305 304 304 305 304 305 305 306 306 306 306 307 307 306 306 307 306 307 309 318 332 333 335 335 334 332 330 330 329 328 328 327 326 326 327 326 328 328 327 324 322 321 320 319 317
305 305 305 304 304 304 304 305 304 305 304 304 305 306 307 307 307 307 307 307 307 307 307 308 311 329 332 335 335 333 331 331 330 328 328 326 325 325 326 326 328 327 325 323 321 320 319 314 311
305 305 306 306 304 304 304 305 306 307 306 306 306 307 307 308 309 308 307 307 307 307 307 306 307 311 328 332 334 334 333 332 330 330 328 327 326 325 326 326 327 325 325 322 320 318 315 310 308
306 305 305 305 305 304 305 306 306 307 307 307 307 307 308 309 309 308 308 307 306 306 307 307 307 306 313 330 332 334 334 332 331 330 329 328 327 326 326 327 326 324 323 320 318 316 313 308 305
304 304 304 306 305 304 305 306 306 307 307 307 307 308 309 310 310 309 308 307 306 305 306 306 307 307 309 319 330 333 333 332 331 329 328 328 327 327 326 326 325 322 320 318 315 313 311 306 304
304 305 306 306 304 304 305 305 306 308 307 308 308 310 310 310 309 307 307 306 305 305 305 305 306 307 308 312 322 329 332 333 331 330 328 328 327 326 326 325 324 322 319 316 314 311 306 301 298
304 303 304 302 303 304 305 307 307 308 308 308 308 310 311 309 308 307 306 306 305 305 304 304 304 305 306 307 308 318 329 331 331 330 329 328 327 326 325 325 323 321 318 315 312 307 303 299 299
302 302 301 302 304 306 307 308 308 308 307 307 307 309 310 309 308 307 307 305 304 304 303 303 303 303 304 305 306 306 311 328 331 331 329 328 327 326 325 325 323 320 317 314 311 307 306 297 298
301 303 301 303 306 310 307 312 308 308 307 307 307 308 309 308 308 307 305 304 303 303 302 302 301 301 302 303 304 306 306 313 328 330 330 328 327 326 325 324 323 320 316 313 311 308 307 302 300
301 300 304 305 307 308 309 310 308 308 307 306 307 308 308 307 307 306 305 302 302 301 301 300 299 299 300 301 302 304 306 308 316 328 329 328 327 326 325 324 323 319 317 314 312 307 306 303 303
300 306 306 305 308 313 309 308 308 308 306 306 306 307 307 307 306 304 301 300 298 298 298 298 298 298 298 299 301 303 305 307 313 323 328 327 326 325 325 324 321 319 316 314 313 309 308 306 304
305 308 313 313 316 312 306 306 307 306 306 307 307 306 306 305 303 301 299 298 296 295 295 296 296 296 297 298 300 302 304 307 314 322 326 326 325 324 323 323 321 319 317 314 312 313 309 305 305
304 307 308 309 310 309 305 308 307 306 307 306 306 305 304 302 300 299 296 295 294 293 293 293 294 295 296 297 299 301 303 307 313 320 326 325 324 324 323 322 320 318 315 314 312 310 309 306 305
306 307 303 306 307 308 308 307 307 306 305 306 305 303 302 301 298 296 294 293 292 292 292 292 293 294 295 297 299 300 302 305 311 321 322 322 323 322 323 321 318 316 316 313 310 309 307 305 302
303 302 306 307 308 308 308 307 309 306 306 305 303 303 302 300 297 294 293 292 291 291 292 292 293 294 294 295 297 300 302 305 310 320 320 316 316 317 316 314 314 313 311 309 307 304 301 300 296
303 306 305 303 303 308 307 307 306 304 307 304 302 302 301 298 295 293 291 290 290 290 291 291 293 294 295 295 297 300 303 305 311 318 316 315 313 310 312 312 310 308 305 304 303 300 297 296 295
298 303 303 299 302 303 303 303 305 306 306 302 302 301 299 296 293 291 290 289 289 289 289 290 292 293 295 296 297 300 303 305 311 311 309 307 305 305 303 304 302 301 299 297 296 294 295 295 293
Wind_Speed
15 13 7 6 6 6 11 8 8 5 4 4 2 6 10 13 11 4 1 7 9 20 23 30 30 28 27 27 27 28 26 22 20 20 18 20 19 17 15 15 14 13 14 14 12 11 13 13 13
13 11 5 6 6 10 8 7 8 10 4 7 9 10 10 10 7 3 0 7 9 19 23 27 29 27 27 28 27 27 26 24 21 20 21 21 19 18 17 15 14 13 13 13 13 13 13 13 13
9 6 4 4 9 12 9 4 5 2 2 6 4 4 7 6 8 6 6 7 11 17 22 24 29 27 25 28 28 27 25 24 23 22 21 20 18 18 18 17 15 15 13 14 14 14 13 13 13
8 0 3 7 13 11 7 7 1 9 6 1 5 8 2 14 9 12 7 6 14 16 20 24 28 26 24 27 27 27 27 25 24 21 21 20 20 19 19 20 17 16 14 15 14 14 12 13 12
5 2 3 6 12 10 8 8 10 11 12 8 10 8 5 10 12 9 3 5 13 15 18 22 28 27 26 25 26 25 25 26 25 24 23 24 21 19 20 22 19 17 18 17 15 12 11 13 12
5 3 6 9 12 6 1 9 12 12 10 6 7 6 2 14 20 14 7 4 10 14 17 21 28 27 25 25 25 26 23 26 24 24 23 22 21 24 20 23 19 20 20 18 17 13 13 12 12
8 9 12 16 12 15 8 7 7 9 12 5 11 6 0 17 20 15 8 4 9 13 16 20 26 25 26 25 25 27 26 23 23 23 23 24 23 24 21 21 20 22 19 18 18 17 16 13 10
6 9 16 14 13 16 6 8 6 6 7 10 4 3 4 13 17 15 10 6 7 12 15 17 24 25 23 22 27 27 26 26 23 22 22 23 23 23 23 19 22 21 19 19 18 19 17 16 15
4 7 11 14 14 8 5 8 4 6 14 11 7 9 5 14 17 18 11 8 8 8 17 17 22 25 24 22 25 25 27 28 25 23 23 22 23 25 19 21 21 22 21 19 16 18 17 18 16
9 9 9 7 5 8 12 11 13 13 15 18 16 16 9 21 19 16 14 15 10 14 14 23 20 24 26 24 23 24 26 28 28 27 25 24 24 23 18 21 20 22 21 18 17 19 19 17 17
1 6 7 2 5 8 12 15 13 15 17 16 17 17 16 18 19 17 16 16 17 16 18 19 27 25 28 26 24 26 27 26 31 29 29 25 23 20 23 21 21 24 20 17 19 20 19 15 16
4 3 6 6 6 7 10 12 12 15 20 17 15 14 14 15 14 17 19 20 18 18 19 23 28 30 30 30 31 29 27 29 28 28 29 31 29 23 22 26 26 24 21 21 18 15 15 17 17
4 3 5 4 5 9 10 13 14 22 19 16 9 11 15 17 18 21 20 21 22 21 21 23 28 34 33 35 30 32 33 29 31 30 30 31 31 25 24 31 24 24 23 22 19 19 17 15 16
4 7 8 4 6 8 9 15 14 8 4 7 11 17 17 16 16 19 21 19 20 21 21 20 26 32 35 34 35 35 33 35 33 33 33 31 32 27 25 33 23 28 25 26 22 21 20 18 18
5 6 6 5 4 10 11 14 12 11 6 10 16 16 14 13 14 13 15 17 19 22 23 24 24 27 35 39 38 37 38 37 37 36 35 38 34 32 29 33 25 28 30 25 23 22 20 19 17
4 4 7 3 5 1 7 11 13 14 14 18 16 13 10 9 7 7 9 12 15 18 21 25 25 27 30 38 38 38 39 40 40 38 37 39 39 37 31 34 29 31 27 29 26 25 22 20 20
2 8 12 11 4 5 7 16 20 22 16 15 12 11 7 6 6 4 8 11 14 16 18 21 23 28 28 33 38 41 38 40 38 40 37 39 39 40 35 34 33 36 34 31 29 26 25 25 23
11 10 10 14 9 14 18 23 21 20 13 12 9 5 6 6 7 9 12 13 16 18 18 20 22 23 28 25 36 34 38 33 43 40 39 39 42 43 38 32 35 38 37 32 31 29 25 26 31
8 13 18 16 15 11 14 25 23 18 9 8 5 6 7 7 7 10 12 15 18 20 21 21 21 22 24 27 22 34 34 30 41 46 47 43 41 43 42 36 38 41 40 38 38 36 35 27 30
11 17 15 10 18 16 19 28 23 10 7 5 8 8 9 9 11 12 16 20 23 24 25 23 23 23 23 23 26 23 26 36 31 36 46 36 41 42 43 41 41 40 37 37 38 37 30 21 37
14 10 14 17 25 14 11 16 2 5 4 6 10 10 10 12 13 16 18 27 30 28 28 26 25 25 25 25 25 31 36 29 29 36 40 49 47 45 44 43 42 42 40 38 42 42 36 26 30
11 5 14 18 14 5 10 7 14 3 6 10 8 10 11 13 17 18 23 30 33 32 28 27 26 28 28 26 25 23 20 24 25 34 41 42 47 45 46 42 42 44 38 36 45 43 38 35 34
8 17 17 15 11 10 2 4 7 13 8 14 16 11 13 16 20 24 25 32 35 29 27 28 32 31 31 29 27 26 22 24 33 31 31 40 43 46 46 44 44 44 45 45 46 41 38 36 38
13 16 11 4 4 4 2 3 9 6 13 18 18 16 18 23 25 26 31 33 34 36 36 33 32 33 31 31 29 27 26 24 25 26 22 33 37 41 46 47 43 43 45 49 50 47 45 46 36
13 11 4 3 2 4 2 9 11 14 14 11 15 22 25 25 24 21 23 24 30 31 33 32 31 31 30 30 28 26 24 24 26 25 27 24 25 31 38 45 48 47 51 52 48 53 47 42 42
5 4 3 5 6 12 16 7 5 15 7 10 22 23 24 22 20 23 23 24 27 29 29 31 31 31 29 29 28 25 23 22 21 21 29 32 31 32 35 43 45 45 46 47 48 47 45 42 38
1 1 3 4 8 6 6 11 17 1 13 21 23 24 22 19 22 22 20 25 28 29 30 29 30 29 29 28 25 24 22 21 19 26 21 32 38 37 40 44 36 41 49 49 46 40 38 38 34
1 3 3 3 6 7 6 13 10 14 21 20 25 25 23 24 24 20 19 24 28 30 30 29 28 27 26 27 25 22 20 19 19 25 29 16 27 35 35 30 32 31 33 33 32 30 31 35 32
3 2 2 2 4 4 7 9 10 12 18 22 26 24 20 22 22 20 20 28 30 29 27 27 26 23 22 22 20 20 18 17 17 25 25 26 25 24 30 31 30 29 30 32 34 32 33 35 33
5 4 4 3 2 6 7 10 10 15 20 21 25 20 17 21 21 19 19 24 26 28 27 26 23 19 18 16 15 15 13 14 23 24 21 19 21 20 20 24 25 29 30 30 32 32 33 35 37
Wind_Direction
339 324 303 263 241 235 255 228 248 267 247 85 333 292 316 316 291 345 27 192 163 167 168 172 173 171 171 172 173 171 170 165 164 160 153 151 151 150 148 149 149 137 129 141 141 137 133 127 124
333 333 246 269 252 242 245 208 226 240 355 319 274 271 253 269 32 39 310 169 174 168 165 172 176 179 176 178 178 173 172 172 167 163 161 157 153 151 147 146 147 143 143 142 139 134 129 128 129
336 341 290 260 245 258 286 68 279 35 281 330 301 339 311 357 39 10 8 188 177 169 170 177 180 182 183 182 183 181 176 176 178 171 165 160 161 158 155 155 155 145 149 148 145 140 137 132 135
8 56 259 260 260 257 299 317 326 320 310 329 316 302 338 47 5 343 345 182 176 170 177 183 183 187 189 186 186 186 182 179 182 187 178 172 167 164 168 161 158 148 152 150 149 149 142 142 141
68 38 287 258 267 288 286 283 302 292 300 295 325 286 316 32 7 352 331 219 189 164 179 189 187 190 191 190 187 186 185 188 186 188 184 175 174 174 178 163 166 158 159 155 156 155 146 149 147
215 204 234 242 262 239 242 355 318 300 292 312 302 318 28 38 13 358 336 223 205 178 188 193 190 193 191 189 187 191 189 190 193 187 190 178 185 182 177 167 169 167 164 161 167 153 148 152 150
252 241 242 271 267 265 285 350 309 326 299 324 317 284 229 36 3 355 345 280 215 184 199 188 188 193 195 195 193 188 189 192 195 195 190 184 188 184 181 173 174 172 170 167 174 159 158 159 162
241 239 263 243 257 262 29 347 357 347 293 323 345 298 344 11 360 354 347 304 246 192 211 198 191 193 196 198 196 188 194 190 196 198 192 190 192 185 181 182 185 177 170 176 174 171 168 170 168
248 244 249 262 265 296 35 344 291 318 282 269 275 281 324 356 340 336 334 313 278 242 221 215 200 198 198 200 202 201 197 194 197 201 196 199 196 187 191 193 191 182 178 180 177 175 178 173 164
227 240 273 17 358 307 318 310 311 308 292 283 285 282 341 331 329 322 315 306 276 252 235 228 215 202 198 201 201 203 200 202 196 203 199 201 188 183 191 188 195 185 181 179 168 169 172 157 155
218 268 22 344 355 323 302 298 309 286 277 280 298 310 312 316 312 309 305 302 294 276 255 236 225 211 203 201 200 199 201 200 203 199 198 194 187 196 183 192 196 180 173 157 167 166 157 162 160
267 307 326 338 335 310 296 314 282 273 274 295 296 303 307 310 317 312 307 301 295 294 264 245 237 225 209 203 200 196 204 201 204 202 195 193 192 190 190 196 188 176 172 162 165 165 173 161 157
262 332 300 295 302 306 301 282 286 282 280 282 287 286 294 299 302 300 298 294 286 281 281 252 238 234 219 208 203 197 200 205 201 205 200 195 192 192 194 194 193 178 171 166 166 170 164 157 150
332 289 276 291 251 294 287 293 294 265 342 284 284 296 295 299 300 299 296 292 291 289 280 280 254 240 231 216 204 199 200 202 201 204 201 198 193 192 194 193 193 180 171 162 166 164 158 149 151
307 298 245 190 329 303 316 284 226 263 306 291 276 279 292 303 312 310 313 309 303 294 287 278 279 258 237 227 216 204 201 202 200 201 199 200 198 197 192 191 192 178 171 161 163 163 155 145 148
315 248 343 64 9 354 343 293 303 330 304 288 290 292 303 306 306 332 338 329 320 307 293 284 278 275 257 234 224 211 208 203 202 200 198 195 198 198 192 191 191 175 172 162 160 161 153 149 152
99 316 318 321 278 302 270 292 291 304 298 291 287 287 293 284 287 305 323 329 330 321 309 295 283 279 277 249 238 223 210 206 205 201 196 193 195 196 192 189 193 186 174 165 164 163 158 148 147
321 320 314 308 302 317 291 287 295 301 297 286 285 274 255 270 293 314 310 321 319 319 314 305 294 279 278 286 243 238 223 207 204 208 194 197 194 192 189 185 189 184 177 168 165 160 157 154 154
307 301 301 303 327 310 287 297 298 299 289 272 262 250 258 273 296 303 313 321 321 318 312 308 299 291 278 286 282 242 227 219 207 202 203 197 194 191 188 185 192 187 184 176 176 167 158 145 151
303 301 311 306 324 320 300 294 294 277 266 281 289 268 269 285 294 304 308 319 317 314 311 303 297 292 286 280 284 283 259 225 220 197 193 198 194 192 190 185 188 187 185 180 173 164 152 154 165
314 298 325 311 320 302 313 288 275 279 231 266 276 278 285 281 301 315 316 315 314 307 307 298 294 290 286 283 282 284 279 265 211 212 189 197 201 194 196 193 190 190 186 178 176 175 169 161 181
308 345 312 310 318 307 357 294 315 329 274 302 297 277 277 307 318 315 317 311 310 303 300 290 289 288 285 280 278 273 271 266 244 210 203 191 194 197 195 191 189 187 187 183 182 186 182 174 173
281 317 302 297 292 307 140 257 283 294 311 342 335 313 302 315 321 313 310 311 307 304 296 296 292 287 280 275 271 271 269 269 269 243 207 188 194 194 190 191 189 185 186 191 190 185 184 187 178
295 304 311 268 283 260 285 278 286 343 335 328 333 329 322 317 312 311 312 313 309 304 298 292 287 283 279 276 270 266 266 268 260 265 193 183 187 191 195 192 190 188 188 192 192 194 191 192 187
350 340 347 296 253 293 120 299 260 313 333 335 328 328 319 319 314 316 313 309 306 302 298 293 286 280 278 275 272 269 264 266 262 265 217 183 185 191 192 194 194 192 197 196 194 197 194 196 190
4 9 32 305 316 301 302 238 275 338 1 329 335 324 320 317 321 315 312 308 306 302 296 294 289 283 277 273 271 269 265 261 260 247 202 189 190 196 195 201 200 195 194 199 197 194 193 194 191
53 352 350 273 252 268 245 276 286 86 329 333 331 327 320 321 323 319 315 310 308 302 296 290 284 281 279 275 269 268 265 256 254 229 231 189 193 197 203 200 199 196 198 195 192 190 188 188 185
274 347 236 183 302 298 274 308 300 336 330 338 338 331 327 324 325 321 321 316 312 306 301 295 281 274 268 268 268 265 263 263 258 216 205 202 187 194 191 186 185 190 185 182 181 175 171 168 159
166 185 219 280 264 291 309 299 348 316 339 342 339 330 323 326 327 329 323 319 314 313 309 298 289 275 264 258 259 260 260 266 249 198 192 189 194 182 184 184 173 173 169 168 169 165 160 159 149
245 231 193 232 246 252 282 271 278 326 345 341 335 321 328 328 333 330 326 322 323 322 317 304 292 277 263 253 255 260 257 197 170 172 175 170 163 172 174 167 157 157 152 153 154 145 148 144 137